User: anonymous   Login
Location: Brno
(49.2000°N, 16.6330°E)
Time: 00:19:31
(UTC+02:00)
Language:

Cosmos 2227 - Orbit

View from above orbital plane
View from above orbital plane
View from above satellite
View from above satellite

Ground track
Ground track

The orbit data is extracted from the following two-line orbital elements,

1 22284U 92093A   15243.91070206 +.00000300 +00000-0 +18533-3 0  9997
2 22284 070.9778 169.1226 0017493 085.6238 274.6882 14.13232647169793
Epoch (UTC): 31 August 2015 21:51:24
Eccentricity: 0.0017493
inclination: 70.9778°
perigee height: 835 km
apogee height: 861 km
right ascension of ascending node: 169.1226°
argument of perigee: 85.6238°
revolutions per day: 14.13232647
mean anomaly at epoch: 274.6882°
orbit number at epoch: 16979

The dashed part of the orbit path shows where the satellite is in the earth's shadow,  

DLR